Location: Saint-Maurice-d�Ard�che
(44.5216°N, 4.4002°E)
Time: 01:24:39
(UTC+00:00)

HJ-1C - Pass Details

Date: 30 March 2020
Orbit: 431 x 447 km, 97.2° (Epoch: 05 June)

Event Time Altitude Azimuth Distance (km) Brightness Sun altitude
Rises 18:29:16 0° 157° (SSE) 2,415 6.8 -4.6°
Reaches altitude 10° 18:31:17 10° 153° (SSE) 1,553 5.8 -5.0°
Maximum altitude 18:34:33 55° 74° (ENE) 541 3.5 -5.5°
Drops below altitude 10° 18:37:51 10° 357° (N) 1,577 6.4 -6.1°
Sets 18:39:55 0° 353° (N) 2,456 7.4 -6.5°
